Flag for U.S.A. Weather past 2 weeks in Cedar Rapids, Iowa, U.S.A.

Now
71 °F

Partly sunny.


Feels Like: 68 °F
Forecast: 57 / 67 °F
Wind: 9 mph from Southeast

Location: Cedar Rapids Municipal Airport

Current Time: May 24, 2015 at 6:32:22 PM

Latest Report: May 24, 2015 at 5:52 PM


Visibility: 9 mi

Pressure: 29.82 "Hg

Humidity: 90%

Dew point: 68 °F

Location of Cedar RapidsLocation

Historic Weather in Cedar Rapids — Graph

°F

Cedar Rapids temperature yesterday

Maximum temperature yesterday: 76 °F (at 1:52 PM)
Minimum temperature yesterday: 53 °F (at 5:52 AM)
Average temperature yesterday: 67 °F

Past Weeks' High & Low Weather Summary

 TemperatureHumidityPressure
High80 °F (May 16, 1:52 PM)100% (May 10, 6:52 PM)30.42 "Hg (May 10, 6:52 PM)
Low35 °F (May 21, 3:52 AM)24% (May 22, 4:52 PM)29.71 "Hg (May 17, 3:52 PM)
Average58 °F72%30.06 "Hg
* Reported May 9 4:52 PM — May 24 4:52 PM, Cedar Rapids, Weather by CustomWeather, © 2015

Note: Actual official high and low records may vary slightly from our data, if they occured in-between our weather recording intervals... More about our weather records

Advertising

Cedar Rapids weather history for previous 24 hours

 ConditionsComfort  
Time TempWeatherWind HumidityBarometerVisibility
4:52 PM
Sun, May 24
70 °FPartly sunny.7 mph93%29.83 "Hg8 mi
3:52 PM69 °FMostly cloudy.13 mph93%29.85 "Hg8 mi
3:04 PM66 °FFog.14 mph96%29.89 "Hg6 mi
2:54 PM66 °FLight rain. Fog.13 mph96%29.90 "Hg5 mi
1:52 PM63 °FLight rain. Fog.12 mph97%29.91 "Hg5 mi
12:52 PM61 °FLight rain. Fog.12 mph100%29.93 "Hg3 mi
11:52 AM60 °FMostly cloudy.14 mph96%29.95 "Hg8 mi
10:59 AM60 °FHeavy rain. Fog.14 mph96%29.98 "Hg6 mi
9:52 AM59 °FHeavy rain. Fog.15 mph100%29.99 "Hg1 mi
9:04 AM58 °FHeavy rain. Fog.14 mph100%30.04 "Hg1 mi
8:52 AM58 °FRain. Fog.13 mph100%30.03 "Hg2 mi
7:59 AM58 °FLight rain. Fog.10 mph100%30.05 "Hg4 mi
6:52 AM58 °FLight rain. Fog.8 mph97%30.06 "Hg6 mi
5:52 AM58 °FLight rain. Overcast.7 mph97%30.05 "Hg8 mi
4:52 AM59 °FLight rain. Overcast.8 mph90%30.07 "Hg8 mi
3:52 AM65 °FLight rain. Mostly cloudy.15 mph63%30.09 "Hg10 mi
2:52 AM65 °FOvercast.5 mph61%30.09 "Hg10 mi
1:52 AM66 °FOvercast.5 mph59%30.09 "Hg10 mi
12:52 AM65 °FOvercast.6 mph61%30.09 "Hg10 mi
11:52 PM
Sat, May 23
64 °FClear.7 mph61%30.09 "Hg10 mi
10:52 PM65 °FOvercast.6 mph59%30.11 "Hg9 mi
9:52 PM66 °FPassing clouds.3 mph54%30.12 "Hg10 mi
8:52 PM68 °FPartly sunny.5 mph47%30.11 "Hg10 mi
7:52 PM71 °FPartly sunny.8 mph41%30.11 "Hg10 mi
6:52 PM75 °FPartly sunny.14 mph33%30.11 "Hg10 mi
Weather by CustomWeather, © 2015

See weather overviewHow to use our weather pages